User: anonymous   Login
Location: Dreilärchen
(47.9312°N, 8.6113°E)
Time: 15:10:54
(UTC+00:00)
Language:

ALOS - Orbit

View from above orbital plane
View from above orbital plane
View from above satellite
View from above satellite

Ground track
Ground track

The orbit data is extracted from the following two-line orbital elements,

1 28931U 06002A   22221.37443817  .00000350  00000-0  76623-4 0  9993
2 28931  97.9392 184.2646 0001974 101.2017 258.9408 14.63246823882168
Epoch (UTC): 09 August 2022 08:59:11
Eccentricity: 0.0001974
inclination: 97.9392°
perigee height: 681 km
apogee height: 684 km
right ascension of ascending node: 184.2646°
argument of perigee: 101.2017°
revolutions per day: 14.63246823
mean anomaly at epoch: 258.9408°
orbit number at epoch: 88216

The dashed part of the orbit path shows where the satellite is in the earth's shadow,  

DLR